TimeCST,TemperatureF,Dew PointF,Humidity,Sea Level PressureIn,VisibilityMPH,Wind Direction,Wind SpeedMPH,Gust SpeedMPH,PrecipitationIn,Events,Conditions,WindDirDegrees,DateUTC
12:44 AM,30.2,17.6,60,29.86,10.0,Calm,Calm,-,N/A,,Scattered Clouds,0,2012-11-25 06:44:00
12:55 AM,29.3,18.0,63,29.86,10.0,SSW,5.8,-,0.00,,Mostly Cloudy,210,2012-11-25 06:55:00
12:57 AM,30.2,17.6,60,29.86,10.0,SW,4.6,-,N/A,,Mostly Cloudy,220,2012-11-25 06:57:00
1:06 AM,30.2,17.6,60,29.86,10.0,SSW,4.6,-,N/A,,Mostly Cloudy,210,2012-11-25 07:06:00
1:17 AM,28.4,17.6,64,29.86,10.0,SW,5.8,-,N/A,,Overcast,230,2012-11-25 07:17:00
1:55 AM,29.3,18.5,64,29.86,10.0,SW,4.6,-,0.00,,Overcast,220,2012-11-25 07:55:00
2:55 AM,29.1,18.9,66,29.84,10.0,SW,3.5,-,N/A,,Overcast,230,2012-11-25 08:55:00
3:55 AM,29.1,19.4,67,29.83,10.0,SW,5.8,-,N/A,,Overcast,230,2012-11-25 09:55:00
4:55 AM,23.5,17.1,76,29.84,10.0,West,4.6,-,N/A,,Clear,260,2012-11-25 10:55:00
5:55 AM,22.5,17.6,82,29.85,10.0,Calm,Calm,-,N/A,,Scattered Clouds,0,2012-11-25 11:55:00
6:55 AM,18.7,15.6,88,29.86,10.0,WNW,3.5,-,N/A,,Clear,290,2012-11-25 12:55:00
7:55 AM,21.9,17.6,83,29.89,10.0,West,6.9,-,N/A,,Partly Cloudy,280,2012-11-25 13:55:00
8:24 AM,26.6,21.2,80,29.86,10.0,West,6.9,-,N/A,,Mostly Cloudy,270,2012-11-25 14:24:00
8:55 AM,28.4,19.4,69,29.90,10.0,WNW,11.5,-,N/A,,Overcast,290,2012-11-25 14:55:00
9:55 AM,32.0,21.2,64,29.92,10.0,WNW,12.7,-,N/A,,Overcast,300,2012-11-25 15:55:00
10:55 AM,33.8,21.2,60,29.94,10.0,WNW,16.1,21.9,N/A,,Mostly Cloudy,300,2012-11-25 16:55:00
11:38 AM,33.8,19.4,56,29.90,10.0,NW,9.2,-,N/A,,Partly Cloudy,310,2012-11-25 17:38:00
11:55 AM,35.6,19.4,52,29.92,10.0,West,13.8,-,N/A,,Partly Cloudy,260,2012-11-25 17:55:00
12:55 PM,37.4,19.4,48,29.92,10.0,WNW,12.7,-,N/A,,Partly Cloudy,290,2012-11-25 18:55:00
1:55 PM,37.4,19.4,48,29.93,10.0,West,15.0,-,N/A,,Partly Cloudy,280,2012-11-25 19:55:00
2:55 PM,35.6,19.4,52,29.93,10.0,WNW,10.4,-,N/A,,Partly Cloudy,290,2012-11-25 20:55:00
3:55 PM,33.8,19.4,56,29.96,10.0,WNW,6.9,-,N/A,,Partly Cloudy,290,2012-11-25 21:55:00
4:55 PM,24.8,17.6,74,29.98,10.0,NW,5.8,-,N/A,,Partly Cloudy,320,2012-11-25 22:55:00
5:55 PM,27.9,19.6,71,30.01,10.0,NW,6.9,-,N/A,,Scattered Clouds,310,2012-11-25 23:55:00
6:55 PM,28.6,20.3,71,30.03,10.0,NW,17.3,20.7,N/A,,Mostly Cloudy,320,2012-11-26 00:55:00
7:55 PM,25.2,17.6,73,30.06,10.0,WNW,9.2,-,N/A,,Partly Cloudy,300,2012-11-26 01:55:00
8:55 PM,20.8,15.4,80,30.08,10.0,WNW,3.5,-,N/A,,Clear,300,2012-11-26 02:55:00
9:55 PM,19.0,14.9,84,30.10,10.0,WSW,4.6,-,N/A,,Scattered Clouds,240,2012-11-26 03:55:00
10:55 PM,21.6,17.8,85,30.12,10.0,West,4.6,-,N/A,,Overcast,260,2012-11-26 04:55:00
11:55 PM,25.7,19.4,77,30.13,10.0,WSW,5.8,-,N/A,,Overcast,240,2012-11-26 05:55:00